This is the latest recevied weather packets stored in our database for station/object WX2NJ-13. If no packets are shown the sender has not sent any weather packets the latest 10 day(s).
| Time | Temp. | Humidity | Pressure | Rain* | Wind** | Luminosity | Snow |
|---|---|---|---|---|---|---|---|
| 1777820075 | 13.89° C | 44% | 1013.6 hPa | 0 mm | 0.89 m/s, 300° | - | - |
| 1777819776 | 13.89° C | 42% | 1013.7 hPa | 0 mm | 1.34 m/s, 328° | - | - |
| 1777819475 | 13.33° C | 45% | 1013.7 hPa | 0 mm | 0.89 m/s, 307° | - | - |
| 1777819176 | 13.33° C | 45% | 1013.7 hPa | 0 mm | 0.45 m/s, 260° | - | - |
| 1777818878 | 13.33° C | 43% | 1013.6 hPa | 0 mm | 1.34 m/s, 228° | - | - |
| 1777818577 | 13.33° C | 46% | 1013.7 hPa | 0 mm | 0.89 m/s, 304° | - | - |
| 1777818278 | 12.78° C | 48% | 1013.6 hPa | 0 mm | 1.34 m/s, 325° | - | - |
| 1777817980 | 12.78° C | 48% | 1013.7 hPa | 0 mm | 0.89 m/s, 315° | - | - |
| 1777817679 | 12.22° C | 47% | 1013.7 hPa | 0 mm | 1.34 m/s, 281° | - | - |
| 1777817380 | 11.67° C | 51% | 1013.8 hPa | 0 mm | 1.34 m/s, 173° | - | - |
| 1777817082 | 11.67° C | 52% | 1013.7 hPa | 0 mm | 2.24 m/s, 246° | - | - |
| 1777816780 | 11.11° C | 51% | 1013.7 hPa | 0 mm | 1.79 m/s, 271° | - | - |
| 1777816482 | 11.11° C | 53% | 1013.7 hPa | 0 mm | 0.45 m/s, 332° | - | - |
| 1777816183 | 11.11° C | 53% | 1013.7 hPa | 0 mm | 0.45 m/s, 308° | - | - |
| 1777815584 | 10.56° C | 54% | 1013.6 hPa | 0 mm | 1.79 m/s, 205° | - | - |
| 1777815285 | 10.56° C | 53% | 1013.6 hPa | 0 mm | 1.34 m/s, 246° | - | - |
| 1777814984 | 10.56° C | 55% | 1013.6 hPa | 0 mm | 0.89 m/s, 248° | - | - |
| 1777814685 | 10.56° C | 53% | 1013.5 hPa | 0 mm | 0.89 m/s, 79° | - | - |
| 1777814387 | 10° C | 58% | 1013.4 hPa | 0 mm | 0.45 m/s, 316° | - | - |
| 1777814086 | 10° C | 58% | 1013.5 hPa | 0 mm | 0.89 m/s, 226° | - | - |
| 1777813787 | 9.44° C | 59% | 1013.5 hPa | 0 mm | 0.45 m/s, 352° | - | - |
| 1777813489 | 9.44° C | 59% | 1013.5 hPa | 0 mm | 0.89 m/s, 262° | - | - |
| 1777813187 | 9.44° C | 61% | 1013.5 hPa | 0 mm | 0.45 m/s, 356° | - | - |
| 1777812889 | 9.44° C | 60% | 1013.4 hPa | 0 mm | 0.89 m/s, 166° | - | - |
| 1777812590 | 9.44° C | 59% | 1013.4 hPa | 0 mm | 0.45 m/s, 328° | - | - |
* Rain latest hour (hover to see other rain measurements)
** Current wind speed in m/s (hover to see current wind gust speed)